IRIDIUM 142 (43256 NORAD) Tracking and Keplerian Element Data

This shows tracking and keplerian element data for the satellite.

Feedback or suggestion? Click here.




ElementValue
Catalog43256
NameIRIDIUM 142
Epoch Orbit35869
Epoch Day34.75355897
Epoch Year2025
RAAN138.7521
Inclination86.4006
Eccentricity0.0002444
Argument of Perigee88.3698
Mean Anonmoly271.7777
Mean Motion14.34214487
Decay Rate2.26E-06
L11 43256U 18030H 25034.75355897 .00000226 00000+0 73759-4 0 9999
L22 43256 86.4006 138.7521 0002444 88.3698 271.7777 14.34214487358696



Live tracking and technical data element details for IRIDIUM 142 (NORAD 43256). IRIDIUM 142 can be tracked NOW for your location showing map with azimuth and elevation plus other details from your city location.







IsCatalogInMostPopularTable: catalog: 43256, numindb: 551
Update: records affected: 1



GetName: 43256 IRIDIUM 142

Hit Count: updated at: Thu, 15 May 2025 20:17:31 GMT